Time,TemperatureF,DewpointF,PressureIn,WindDirection,WindDirectionDegrees,WindSpeedMPH,WindSpeedGustMPH,Humidity,HourlyPrecipIn,Conditions,Clouds,dailyrainin,SolarRadiationWatts/m^2,SoftwareType,DateUTC
2013-03-22 00:02:00,7.0,7.0,-100.00,WNW,298,1.0,3.0,100,0.00,,,0.00,1.000000,,2013-03-22 05:02:00,
2013-03-22 00:22:00,7.0,7.0,-100.00,WNW,298,1.0,3.0,100,0.00,,,0.00,1.000000,,2013-03-22 05:22:00,
2013-03-22 00:32:00,7.0,7.0,-100.00,WNW,298,1.0,3.0,100,0.00,,,0.00,1.000000,,2013-03-22 05:32:00,
2013-03-22 00:42:00,7.0,7.0,-100.00,WNW,298,1.0,3.0,100,0.00,,,0.00,1.000000,,2013-03-22 05:42:00,
2013-03-22 00:52:00,7.0,7.0,-100.00,WNW,298,1.0,3.0,100,0.00,,,0.00,1.000000,,2013-03-22 05:52:00,
2013-03-22 01:02:00,7.0,7.0,-100.00,NNW,341,2.0,3.0,100,0.00,,,0.00,1.000000,,2013-03-22 06:02:00,
2013-03-22 01:22:00,7.0,7.0,-100.00,NNW,341,2.0,3.0,100,0.00,,,0.00,1.000000,,2013-03-22 06:22:00,
2013-03-22 01:32:00,7.0,7.0,-100.00,NNW,341,2.0,3.0,100,0.00,,,0.00,1.000000,,2013-03-22 06:32:00,
2013-03-22 01:43:00,7.0,7.0,-100.00,NNW,341,2.0,3.0,100,0.00,,,0.00,1.000000,,2013-03-22 06:43:00,
2013-03-22 01:52:00,7.0,7.0,-100.00,NNW,341,2.0,3.0,100,0.00,,,0.00,1.000000,,2013-03-22 06:52:00,
2013-03-22 02:02:00,6.0,5.0,-100.00,NNW,347,2.0,4.0,96,0.00,,,0.00,1.000000,,2013-03-22 07:02:00,
2013-03-22 02:22:00,6.0,5.0,-100.00,NNW,347,2.0,4.0,96,0.00,,,0.00,1.000000,,2013-03-22 07:22:00,
2013-03-22 02:32:00,6.0,5.0,-100.00,NNW,347,2.0,4.0,96,0.00,,,0.00,1.000000,,2013-03-22 07:32:00,
2013-03-22 02:42:00,6.0,5.0,-100.00,NNW,347,2.0,4.0,96,0.00,,,0.00,1.000000,,2013-03-22 07:42:00,
2013-03-22 02:52:00,6.0,5.0,-100.00,NNW,347,2.0,4.0,96,0.00,,,0.00,1.000000,,2013-03-22 07:52:00,
2013-03-22 03:02:00,10.0,10.0,-100.00,North,353,3.0,4.0,98,0.00,,,0.00,1.000000,,2013-03-22 08:02:00,
2013-03-22 03:22:00,10.0,10.0,-100.00,North,353,3.0,4.0,98,0.00,,,0.00,1.000000,,2013-03-22 08:22:00,
2013-03-22 03:32:00,10.0,10.0,-100.00,North,353,3.0,4.0,98,0.00,,,0.00,1.000000,,2013-03-22 08:32:00,
2013-03-22 03:42:00,10.0,10.0,-100.00,North,353,3.0,4.0,98,0.00,,,0.00,1.000000,,2013-03-22 08:42:00,
2013-03-22 03:52:00,10.0,10.0,-100.00,North,353,3.0,4.0,98,0.00,,,0.00,1.000000,,2013-03-22 08:52:00,
2013-03-22 04:02:00,9.0,8.0,-100.00,WNW,292,1.0,3.0,97,0.00,,,0.00,1.000000,,2013-03-22 09:02:00,
2013-03-22 04:33:00,9.0,8.0,-100.00,WNW,292,1.0,3.0,97,0.00,,,0.00,1.000000,,2013-03-22 09:33:00,
2013-03-22 04:42:00,9.0,8.0,-100.00,WNW,292,1.0,3.0,97,0.00,,,0.00,1.000000,,2013-03-22 09:42:00,
2013-03-22 04:53:00,9.0,8.0,-100.00,WNW,292,1.0,3.0,97,0.00,,,0.00,1.000000,,2013-03-22 09:53:00,
2013-03-22 05:02:00,9.0,8.0,-100.00,NW,309,1.0,3.0,96,0.00,,,0.00,1.000000,,2013-03-22 10:02:00,
2013-03-22 05:33:00,9.0,8.0,-100.00,NW,309,1.0,3.0,96,0.00,,,0.00,1.000000,,2013-03-22 10:33:00,
2013-03-22 05:42:00,9.0,8.0,-100.00,NW,309,1.0,3.0,96,0.00,,,0.00,1.000000,,2013-03-22 10:42:00,
2013-03-22 05:52:00,9.0,8.0,-100.00,NW,309,1.0,3.0,96,0.00,,,0.00,1.000000,,2013-03-22 10:52:00,
2013-03-22 06:02:00,11.0,11.0,-100.00,NNW,329,2.0,3.0,98,0.00,,,0.00,1.000000,,2013-03-22 11:02:00,
2013-03-22 06:22:00,11.0,11.0,-100.00,NNW,329,2.0,3.0,98,0.00,,,0.00,1.000000,,2013-03-22 11:22:00,
2013-03-22 06:33:00,11.0,11.0,-100.00,NNW,329,2.0,3.0,98,0.00,,,0.00,1.000000,,2013-03-22 11:33:00,
2013-03-22 06:42:00,11.0,11.0,-100.00,NNW,329,2.0,3.0,98,0.00,,,0.00,1.000000,,2013-03-22 11:42:00,
2013-03-22 06:52:00,11.0,11.0,-100.00,NNW,329,2.0,3.0,98,0.00,,,0.00,1.000000,,2013-03-22 11:52:00,
2013-03-22 07:02:00,12.0,11.0,-100.00,WNW,297,1.0,4.0,97,0.00,,,0.00,1.000000,,2013-03-22 12:02:00,
2013-03-22 07:32:00,12.0,11.0,-100.00,WNW,297,1.0,4.0,97,0.00,,,0.00,1.000000,,2013-03-22 12:32:00,
2013-03-22 07:42:00,12.0,11.0,-100.00,WNW,297,1.0,4.0,97,0.00,,,0.00,1.000000,,2013-03-22 12:42:00,
2013-03-22 07:52:00,12.0,11.0,-100.00,WNW,297,1.0,4.0,97,0.00,,,0.00,1.000000,,2013-03-22 12:52:00,
2013-03-22 08:02:00,13.0,12.0,-100.00,NW,307,0.0,3.0,97,0.00,,,0.00,18.000000,,2013-03-22 13:02:00,
2013-03-22 08:22:00,13.0,12.0,-100.00,NW,307,0.0,3.0,97,0.00,,,0.00,18.000000,,2013-03-22 13:22:00,
2013-03-22 08:32:00,13.0,12.0,-100.00,NW,307,0.0,3.0,97,0.00,,,0.00,18.000000,,2013-03-22 13:32:00,
2013-03-22 08:42:00,13.0,12.0,-100.00,NW,307,0.0,3.0,97,0.00,,,0.00,18.000000,,2013-03-22 13:42:00,
2013-03-22 08:52:00,13.0,12.0,-100.00,NW,307,0.0,3.0,97,0.00,,,0.00,18.000000,,2013-03-22 13:52:00,
2013-03-22 09:02:00,18.0,17.0,-100.00,NW,323,2.0,3.0,97,0.00,,,0.00,67.000000,,2013-03-22 14:02:00,
2013-03-22 09:22:00,18.0,17.0,-100.00,NW,323,2.0,3.0,97,0.00,,,0.00,67.000000,,2013-03-22 14:22:00,
2013-03-22 09:32:00,18.0,17.0,-100.00,NW,323,2.0,3.0,97,0.00,,,0.00,67.000000,,2013-03-22 14:32:00,
2013-03-22 09:43:00,18.0,17.0,-100.00,NW,323,2.0,3.0,97,0.00,,,0.00,67.000000,,2013-03-22 14:43:00,
2013-03-22 09:52:00,18.0,17.0,-100.00,NW,323,2.0,3.0,97,0.00,,,0.00,67.000000,,2013-03-22 14:52:00,
2013-03-22 10:02:00,22.0,20.0,-100.00,NNW,329,3.0,6.0,93,0.00,,,0.00,153.000000,,2013-03-22 15:02:00,
2013-03-22 10:22:00,22.0,20.0,-100.00,NNW,329,3.0,6.0,93,0.00,,,0.00,153.000000,,2013-03-22 15:22:00,
2013-03-22 10:33:00,22.0,20.0,-100.00,NNW,329,3.0,6.0,93,0.00,,,0.00,153.000000,,2013-03-22 15:33:00,
2013-03-22 10:43:00,22.0,20.0,-100.00,NNW,329,3.0,6.0,93,0.00,,,0.00,153.000000,,2013-03-22 15:43:00,
2013-03-22 10:53:00,22.0,20.0,-100.00,NNW,329,3.0,6.0,93,0.00,,,0.00,153.000000,,2013-03-22 15:53:00,
2013-03-22 11:02:00,26.0,21.0,-100.00,NNW,347,4.0,15.0,82,0.00,,,0.00,241.000000,,2013-03-22 16:02:00,
2013-03-22 11:32:00,26.0,21.0,-100.00,NNW,347,4.0,15.0,82,0.00,,,0.00,241.000000,,2013-03-22 16:32:00,
2013-03-22 11:42:00,26.0,21.0,-100.00,NNW,347,4.0,15.0,82,0.00,,,0.00,241.000000,,2013-03-22 16:42:00,
2013-03-22 11:52:00,26.0,21.0,-100.00,NNW,347,4.0,15.0,82,0.00,,,0.00,241.000000,,2013-03-22 16:52:00,
2013-03-22 12:02:00,28.0,21.0,-100.00,North,353,5.0,11.0,75,0.00,,,0.00,317.000000,,2013-03-22 17:02:00,
2013-03-22 12:33:00,28.0,21.0,-100.00,North,353,5.0,11.0,75,0.00,,,0.00,317.000000,,2013-03-22 17:33:00,
2013-03-22 12:42:00,28.0,21.0,-100.00,North,353,5.0,11.0,75,0.00,,,0.00,317.000000,,2013-03-22 17:42:00,
2013-03-22 12:53:00,28.0,21.0,-100.00,North,353,5.0,11.0,75,0.00,,,0.00,317.000000,,2013-03-22 17:53:00,
2013-03-22 13:02:00,31.0,21.0,-100.00,North,350,6.0,14.0,67,0.00,,,0.00,430.000000,,2013-03-22 18:02:00,
2013-03-22 13:33:00,31.0,21.0,-100.00,North,350,6.0,14.0,67,0.00,,,0.00,430.000000,,2013-03-22 18:33:00,
2013-03-22 13:42:00,31.0,21.0,-100.00,North,350,6.0,14.0,67,0.00,,,0.00,430.000000,,2013-03-22 18:42:00,
2013-03-22 13:52:00,31.0,21.0,-100.00,North,350,6.0,14.0,67,0.00,,,0.00,430.000000,,2013-03-22 18:52:00,
2013-03-22 14:02:00,31.0,21.0,-100.00,North,349,5.0,11.0,65,0.00,,,0.00,413.000000,,2013-03-22 19:02:00,
2013-03-22 14:22:00,31.0,21.0,-100.00,North,349,5.0,11.0,65,0.00,,,0.00,413.000000,,2013-03-22 19:22:00,
2013-03-22 14:33:00,31.0,21.0,-100.00,North,349,5.0,11.0,65,0.00,,,0.00,413.000000,,2013-03-22 19:33:00,
2013-03-22 14:43:00,31.0,21.0,-100.00,North,349,5.0,11.0,65,0.00,,,0.00,413.000000,,2013-03-22 19:43:00,
2013-03-22 14:52:00,31.0,21.0,-100.00,North,349,5.0,11.0,65,0.00,,,0.00,413.000000,,2013-03-22 19:52:00,
2013-03-22 15:02:00,33.0,21.0,-100.00,NNE,17,3.0,10.0,62,0.00,,,0.00,335.000000,,2013-03-22 20:02:00,
2013-03-22 15:32:00,33.0,21.0,-100.00,NNE,17,3.0,10.0,62,0.00,,,0.00,335.000000,,2013-03-22 20:32:00,
2013-03-22 15:43:00,33.0,21.0,-100.00,NNE,17,3.0,10.0,62,0.00,,,0.00,335.000000,,2013-03-22 20:43:00,
2013-03-22 15:52:00,33.0,21.0,-100.00,NNE,17,3.0,10.0,62,0.00,,,0.00,335.000000,,2013-03-22 20:52:00,
2013-03-22 16:02:00,32.0,21.0,-100.00,NNW,332,4.0,9.0,63,0.00,,,0.00,306.000000,,2013-03-22 21:02:00,
2013-03-22 16:33:00,32.0,21.0,-100.00,NNW,332,4.0,9.0,63,0.00,,,0.00,306.000000,,2013-03-22 21:33:00,
2013-03-22 16:43:00,32.0,21.0,-100.00,NNW,332,4.0,9.0,63,0.00,,,0.00,306.000000,,2013-03-22 21:43:00,
2013-03-22 16:53:00,32.0,21.0,-100.00,NNW,332,4.0,9.0,63,0.00,,,0.00,306.000000,,2013-03-22 21:53:00,
2013-03-22 17:02:00,31.0,21.0,-100.00,NW,312,4.0,8.0,66,0.00,,,0.00,207.000000,,2013-03-22 22:02:00,
2013-03-22 17:23:00,31.0,21.0,-100.00,NW,312,4.0,8.0,66,0.00,,,0.00,207.000000,,2013-03-22 22:23:00,
2013-03-22 17:32:00,31.0,21.0,-100.00,NW,312,4.0,8.0,66,0.00,,,0.00,207.000000,,2013-03-22 22:32:00,
2013-03-22 17:53:00,31.0,21.0,-100.00,NW,312,4.0,8.0,66,0.00,,,0.00,207.000000,,2013-03-22 22:53:00,
2013-03-22 18:02:00,29.0,21.0,-100.00,North,356,4.0,9.0,71,0.00,,,0.00,112.000000,,2013-03-22 23:02:00,
2013-03-22 18:22:00,29.0,21.0,-100.00,North,356,4.0,9.0,71,0.00,,,0.00,112.000000,,2013-03-22 23:22:00,
2013-03-22 18:33:00,29.0,21.0,-100.00,North,356,4.0,9.0,71,0.00,,,0.00,112.000000,,2013-03-22 23:33:00,
2013-03-22 18:42:00,29.0,21.0,-100.00,North,356,4.0,9.0,71,0.00,,,0.00,112.000000,,2013-03-22 23:42:00,
2013-03-22 18:52:00,29.0,21.0,-100.00,North,356,4.0,9.0,71,0.00,,,0.00,112.000000,,2013-03-22 23:52:00,
2013-03-22 19:02:00,27.0,20.0,-100.00,NNW,340,3.0,7.0,76,0.00,,,0.00,27.000000,,2013-03-23 00:02:00,
2013-03-22 19:33:00,27.0,20.0,-100.00,NNW,340,3.0,7.0,76,0.00,,,0.00,27.000000,,2013-03-23 00:33:00,
2013-03-22 19:42:00,27.0,20.0,-100.00,NNW,340,3.0,7.0,76,0.00,,,0.00,27.000000,,2013-03-23 00:42:00,
2013-03-22 19:52:00,27.0,20.0,-100.00,NNW,340,3.0,7.0,76,0.00,,,0.00,27.000000,,2013-03-23 00:52:00,
2013-03-22 20:02:00,26.0,21.0,-100.00,North,10,4.0,9.0,81,0.00,,,0.00,1.000000,,2013-03-23 01:02:00,
2013-03-22 20:22:00,26.0,21.0,-100.00,North,10,4.0,9.0,81,0.00,,,0.00,1.000000,,2013-03-23 01:22:00,
2013-03-22 20:32:00,26.0,21.0,-100.00,North,10,4.0,9.0,81,0.00,,,0.00,1.000000,,2013-03-23 01:32:00,
2013-03-22 20:43:00,26.0,21.0,-100.00,North,10,4.0,9.0,81,0.00,,,0.00,1.000000,,2013-03-23 01:43:00,
2013-03-22 20:52:00,26.0,21.0,-100.00,North,10,4.0,9.0,81,0.00,,,0.00,1.000000,,2013-03-23 01:52:00,
2013-03-22 21:02:00,25.0,21.0,-100.00,North,9,3.0,10.0,83,0.00,,,0.00,1.000000,,2013-03-23 02:02:00,
2013-03-22 21:23:00,25.0,21.0,-100.00,North,9,3.0,10.0,83,0.00,,,0.00,1.000000,,2013-03-23 02:23:00,
2013-03-22 21:32:00,25.0,21.0,-100.00,North,9,3.0,10.0,83,0.00,,,0.00,1.000000,,2013-03-23 02:32:00,
2013-03-22 21:42:00,25.0,21.0,-100.00,North,9,3.0,10.0,83,0.00,,,0.00,1.000000,,2013-03-23 02:42:00,
2013-03-22 21:52:00,25.0,21.0,-100.00,North,9,3.0,10.0,83,0.00,,,0.00,1.000000,,2013-03-23 02:52:00,
2013-03-22 22:02:00,23.0,19.0,-100.00,NNW,347,3.0,9.0,83,0.00,,,0.00,1.000000,,2013-03-23 03:02:00,
2013-03-22 22:23:00,23.0,19.0,-100.00,NNW,347,3.0,9.0,83,0.00,,,0.00,1.000000,,2013-03-23 03:23:00,
2013-03-22 22:33:00,23.0,19.0,-100.00,NNW,347,3.0,9.0,83,0.00,,,0.00,1.000000,,2013-03-23 03:33:00,
2013-03-22 22:43:00,23.0,19.0,-100.00,NNW,347,3.0,9.0,83,0.00,,,0.00,1.000000,,2013-03-23 03:43:00,
2013-03-22 22:53:00,23.0,19.0,-100.00,NNW,347,3.0,9.0,83,0.00,,,0.00,1.000000,,2013-03-23 03:53:00,
2013-03-22 23:02:00,22.0,18.0,-100.00,NNE,28,3.0,8.0,86,0.00,,,0.00,1.000000,,2013-03-23 04:02:00,
2013-03-22 23:33:00,22.0,18.0,-100.00,NNE,28,3.0,8.0,86,0.00,,,0.00,1.000000,,2013-03-23 04:33:00,
2013-03-22 23:43:00,22.0,18.0,-100.00,NNE,28,3.0,8.0,86,0.00,,,0.00,1.000000,,2013-03-23 04:43:00,
2013-03-22 23:53:00,22.0,18.0,-100.00,NNE,28,3.0,8.0,86,0.00,,,0.00,1.000000,,2013-03-23 04:53:00,